Home > Weather > Kitakyushu > Past weeks

Flag for Japan Past Weather in Kitakyushu, Japan — Yesterday and Last 2 Weeks

Now
72 °F

Light rain. Partly sunny.


Feels Like: 67 °F
Forecast: 72 / 77 °F
Wind: 2 mph from Southeast

Location: Kitakyushu Airport

Current Time: Jun 28, 2016 at 4:46:10 PM

Latest Report: Jun 28, 2016 at 4:00 PM


Visibility: N/A

Pressure: 29.86 "Hg

Humidity: 94%

Dew Point: 70 °F

Location of KitakyushuLocation

Past Weather in Kitakyushu — Graph

°F

Kitakyushu Temperature Yesterday

Maximum temperature yesterday: 73 °F (at 10:00 AM)
Minimum temperature yesterday: 64 °F (at 3:45 PM)
Average temperature yesterday: 69 °F

High & Low Weather Summary for the Past Weeks

 TemperatureHumidityPressure
High84 °F (Jun 23, 4:00 PM)100% (Jun 13, 11:00 PM)29.95 "Hg (Jun 13, 11:00 PM)
Low64 °F (Jun 27, 3:45 PM)48% (Jun 26, 3:00 PM)29.47 "Hg (Jun 24, 4:00 PM)
Average74 °F89%29.72 "Hg
* Reported Jun 13 3:00 PM — Jun 28 3:00 PM, Kitakyushu, Weather by CustomWeather, © 2016

Note: Actual official high and low records may vary slightly from our data, if they occured in-between our weather recording intervals... More about our weather records

Advertising

Kitakyushu Weather History for the Previous 24 Hours

Scroll right to see more
 ConditionsComfort  
Time TempWeatherWind HumidityBarometerVisibility
3:00 PM
Tue, Jun 28
70 °FLight rain. Partly sunny.3 mph100%29.83 "HgN/A
2:00 PM72 °FLight rain. Broken clouds.3 mph94%29.83 "Hg5 mi
1:00 PM73 °FSprinkles. Broken clouds.3 mph89%29.83 "HgN/A
12:00 PM72 °FLight rain. Broken clouds.3 mph94%29.83 "HgN/A
11:00 AM72 °FSprinkles. Broken clouds.3 mph94%29.86 "HgN/A
10:00 AM72 °FBroken clouds.1 mph94%29.83 "HgN/A
9:00 AM70 °FBroken clouds.No wind100%29.83 "HgN/A
8:00 AM70 °FBroken clouds.5 mph94%29.83 "HgN/A
7:00 AM68 °FBroken clouds.2 mph100%29.83 "HgN/A
6:00 AM68 °FBroken clouds.No wind100%29.80 "HgN/A
5:00 AM68 °FSprinkles. Fog.8 mph100%29.80 "Hg2 mi
4:00 AM68 °FSprinkles. Partly cloudy.8 mph100%29.77 "Hg4 mi
3:00 AM68 °FSprinkles. Partly cloudy.9 mph100%29.77 "Hg4 mi
2:00 AM68 °FSprinkles. Passing clouds.8 mph100%29.77 "Hg4 mi
1:00 AM68 °FSprinkles. Passing clouds.9 mph100%29.77 "HgN/A
12:00 AM68 °FSprinkles. Partly cloudy.7 mph100%29.77 "HgN/A
11:00 PM
Mon, Jun 27
68 °FRain showers. Passing clouds.9 mph100%29.77 "Hg4 mi
10:00 PM68 °FSprinkles. Fog.9 mph100%29.80 "Hg2 mi
9:00 PM70 °FLight rain. Partly cloudy.10 mph94%29.77 "HgN/A
8:00 PM68 °FLight rain. Partly cloudy.12 mph100%29.77 "HgN/A
7:00 PM68 °FRain. Fog.16 mph100%29.80 "Hg3 mi
6:00 PM68 °FRain. Fog.18 mph100%29.80 "Hg3 mi
5:00 PM66 °FRain. Fog.13 mph100%29.80 "Hg2 mi
4:01 PM64 °FRain. Fog.5 mph100%29.83 "Hg2 mi
4:00 PM64 °FRain. Fog.5 mph100%29.83 "Hg2 mi
Weather by CustomWeather, © 2016

See weather overviewHow to use our weather pages